TimeEDT,TemperatureF,Dew PointF,Humidity,Sea Level PressureIn,VisibilityMPH,Wind Direction,Wind SpeedMPH,Gust SpeedMPH,PrecipitationIn,Events,Conditions,WindDirDegrees,DateUTC
12:14 AM,60.8,52.9,75,29.96,10.0,WSW,9.2,-,N/A,,Mostly Cloudy,240,2012-10-05 04:14:00
12:34 AM,60.3,50.9,71,29.95,10.0,WSW,12.7,17.3,N/A,,Mostly Cloudy,250,2012-10-05 04:34:00
12:53 AM,59.4,50.0,71,29.96,10.0,WSW,11.5,-,N/A,,Overcast,240,2012-10-05 04:53:00
1:13 AM,59.2,49.1,69,29.97,10.0,WSW,8.1,-,N/A,,Overcast,250,2012-10-05 05:13:00
1:34 AM,58.6,48.2,68,29.97,10.0,WSW,10.4,-,N/A,,Overcast,250,2012-10-05 05:34:00
1:53 AM,58.3,48.2,69,29.97,10.0,WSW,10.4,-,N/A,,Overcast,250,2012-10-05 05:53:00
2:14 AM,58.1,48.2,70,29.98,10.0,WSW,9.2,-,N/A,,Overcast,250,2012-10-05 06:14:00
2:34 AM,58.1,47.8,69,29.98,10.0,West,6.9,-,N/A,,Overcast,260,2012-10-05 06:34:00
2:53 AM,57.2,46.8,68,29.98,10.0,West,10.4,21.9,N/A,,Overcast,260,2012-10-05 06:53:00
3:14 AM,55.6,45.9,70,29.98,10.0,West,12.7,-,N/A,,Scattered Clouds,260,2012-10-05 07:14:00
3:34 AM,54.1,43.3,67,29.98,10.0,West,12.7,17.3,N/A,,Clear,270,2012-10-05 07:34:00
3:53 AM,53.2,41.9,65,29.98,10.0,West,12.7,17.3,N/A,,Clear,280,2012-10-05 07:53:00
4:14 AM,52.0,41.4,67,29.98,10.0,West,6.9,-,N/A,,Clear,280,2012-10-05 08:14:00
4:34 AM,50.5,41.0,70,30.00,10.0,West,8.1,-,N/A,,Clear,270,2012-10-05 08:34:00
4:53 AM,50.0,39.9,68,30.00,10.0,West,10.4,-,N/A,,Clear,270,2012-10-05 08:53:00
5:14 AM,49.5,38.7,66,30.02,10.0,West,9.2,16.1,N/A,,Clear,280,2012-10-05 09:14:00
5:33 AM,48.6,38.3,68,30.01,10.0,West,6.9,-,N/A,,Clear,270,2012-10-05 09:33:00
5:54 AM,47.5,38.7,71,30.02,10.0,West,6.9,-,N/A,,Clear,260,2012-10-05 09:54:00
6:14 AM,46.6,39.0,75,30.02,10.0,West,8.1,-,N/A,,Clear,260,2012-10-05 10:14:00
6:33 AM,46.4,39.2,76,30.02,10.0,WSW,8.1,-,N/A,,Clear,250,2012-10-05 10:33:00
6:54 AM,46.4,38.7,74,30.02,10.0,West,6.9,-,N/A,,Clear,260,2012-10-05 10:54:00
7:14 AM,45.7,38.3,75,30.03,10.0,WSW,6.9,-,N/A,,Clear,250,2012-10-05 11:14:00
7:33 AM,45.5,38.3,76,30.02,10.0,West,6.9,-,N/A,,Clear,260,2012-10-05 11:33:00
7:54 AM,44.6,37.9,77,30.02,10.0,WSW,5.8,-,N/A,,Clear,250,2012-10-05 11:54:00
8:08 AM,43.9,37.9,80,30.03,10.0,WSW,4.6,-,N/A,,Clear,250,2012-10-05 12:08:00
8:33 AM,43.9,38.5,81,30.03,10.0,SW,4.6,-,N/A,,Clear,230,2012-10-05 12:33:00
8:54 AM,45.5,38.7,77,30.03,10.0,WSW,5.8,-,N/A,,Clear,240,2012-10-05 12:54:00
9:13 AM,45.7,39.0,78,30.04,10.0,SW,4.6,-,N/A,,Clear,230,2012-10-05 13:13:00
9:34 AM,46.4,39.7,78,30.04,10.0,SW,8.1,-,N/A,,Clear,230,2012-10-05 13:34:00
9:54 AM,47.8,39.6,73,30.03,10.0,SW,9.2,-,N/A,,Clear,230,2012-10-05 13:54:00
10:13 AM,48.9,39.6,70,30.03,10.0,SW,11.5,18.4,N/A,,Scattered Clouds,220,2012-10-05 14:13:00
10:34 AM,49.6,38.1,65,30.03,10.0,WSW,12.7,17.3,N/A,,Mostly Cloudy,250,2012-10-05 14:34:00
10:54 AM,50.7,39.0,64,30.03,10.0,WSW,9.2,16.1,N/A,,Scattered Clouds,240,2012-10-05 14:54:00
11:14 AM,51.3,38.3,61,30.02,10.0,West,9.2,19.6,N/A,,Scattered Clouds,270,2012-10-05 15:14:00
11:34 AM,52.7,37.6,56,30.01,10.0,West,12.7,17.3,N/A,,Clear,260,2012-10-05 15:34:00
11:53 AM,53.8,37.6,54,30.01,10.0,West,13.8,19.6,N/A,,Clear,260,2012-10-05 15:53:00
12:14 PM,54.7,37.6,53,30.01,10.0,SW,15.0,20.7,N/A,,Clear,230,2012-10-05 16:14:00
12:34 PM,54.7,37.2,52,30.01,10.0,West,11.5,21.9,N/A,,Clear,260,2012-10-05 16:34:00
12:53 PM,55.4,36.7,49,30.00,10.0,West,9.2,-,N/A,,Scattered Clouds,270,2012-10-05 16:53:00
1:14 PM,56.1,36.9,48,30.00,10.0,WSW,13.8,19.6,N/A,,Scattered Clouds,250,2012-10-05 17:14:00
1:34 PM,56.7,35.6,45,29.98,10.0,SW,12.7,21.9,N/A,,Clear,230,2012-10-05 17:34:00
1:53 PM,56.7,36.5,47,29.97,10.0,WSW,10.4,17.3,N/A,,Clear,250,2012-10-05 17:53:00
2:34 PM,58.1,34.3,41,29.96,10.0,WSW,15.0,24.2,N/A,,Clear,250,2012-10-05 18:34:00
2:54 PM,58.8,34.3,40,29.96,10.0,WSW,15.0,23.0,N/A,,Clear,250,2012-10-05 18:54:00
3:14 PM,59.4,34.0,39,29.95,10.0,WSW,15.0,18.4,N/A,,Clear,250,2012-10-05 19:14:00
3:33 PM,58.1,32.9,39,29.95,10.0,WSW,16.1,21.9,N/A,,Clear,240,2012-10-05 19:33:00
3:54 PM,57.4,32.2,39,29.94,10.0,West,13.8,19.6,N/A,,Clear,270,2012-10-05 19:54:00
4:14 PM,57.2,32.5,39,29.94,10.0,West,10.4,-,N/A,,Clear,260,2012-10-05 20:14:00
4:34 PM,56.3,32.0,40,29.93,10.0,WSW,13.8,-,N/A,,Clear,250,2012-10-05 20:34:00
4:54 PM,55.8,32.0,41,29.93,10.0,West,12.7,18.4,N/A,,Clear,260,2012-10-05 20:54:00
5:14 PM,54.9,33.1,44,29.92,10.0,WSW,11.5,17.3,N/A,,Scattered Clouds,240,2012-10-05 21:14:00
5:34 PM,54.5,34.0,46,29.92,10.0,WSW,9.2,-,N/A,,Mostly Cloudy,240,2012-10-05 21:34:00
5:54 PM,53.8,35.2,50,29.92,10.0,WSW,9.2,-,N/A,,Overcast,240,2012-10-05 21:54:00
6:14 PM,53.2,35.8,52,29.94,10.0,WSW,13.8,18.4,N/A,,Overcast,250,2012-10-05 22:14:00
6:34 PM,52.3,36.0,54,29.93,10.0,WSW,11.5,17.3,N/A,,Mostly Cloudy,250,2012-10-05 22:34:00
6:54 PM,51.4,36.3,56,29.95,10.0,WSW,6.9,-,N/A,,Overcast,250,2012-10-05 22:54:00
7:13 PM,51.4,36.1,56,29.95,10.0,WSW,11.5,16.1,N/A,,Overcast,240,2012-10-05 23:13:00
7:34 PM,50.4,35.6,57,29.94,10.0,West,9.2,-,N/A,,Overcast,260,2012-10-05 23:34:00
7:53 PM,50.0,35.2,57,29.94,10.0,WSW,10.4,17.3,N/A,,Overcast,240,2012-10-05 23:53:00
8:14 PM,49.6,36.0,59,29.94,10.0,WSW,11.5,-,N/A,,Overcast,240,2012-10-06 00:14:00
8:34 PM,49.5,36.3,61,29.94,10.0,WSW,9.2,-,N/A,,Overcast,240,2012-10-06 00:34:00
8:54 PM,49.3,36.5,61,29.94,10.0,WSW,9.2,-,N/A,,Overcast,250,2012-10-06 00:54:00
9:14 PM,49.1,37.0,63,29.94,10.0,WSW,6.9,-,N/A,,Overcast,240,2012-10-06 01:14:00
9:34 PM,48.4,37.4,66,29.93,10.0,SW,4.6,-,N/A,,Overcast,220,2012-10-06 01:34:00
9:54 PM,48.2,37.8,67,29.93,10.0,SW,4.6,-,N/A,,Overcast,220,2012-10-06 01:54:00
10:14 PM,48.0,37.9,68,29.92,10.0,SW,6.9,-,N/A,,Overcast,230,2012-10-06 02:14:00
10:34 PM,47.8,38.3,70,29.92,10.0,WSW,4.6,-,N/A,,Overcast,240,2012-10-06 02:34:00
10:54 PM,47.8,37.9,69,29.92,10.0,WSW,5.8,-,N/A,,Mostly Cloudy,240,2012-10-06 02:54:00
11:14 PM,47.7,37.6,68,29.91,10.0,WSW,5.8,-,N/A,,Scattered Clouds,250,2012-10-06 03:14:00
11:34 PM,47.8,37.0,66,29.91,10.0,WSW,5.8,-,N/A,,Mostly Cloudy,250,2012-10-06 03:34:00
11:54 PM,47.8,36.5,65,29.91,10.0,WSW,5.8,-,N/A,,Mostly Cloudy,250,2012-10-06 03:54:00